This is the latest recevied weather packets stored in our database for station/object KC5DAQ-27. If no packets are shown the sender has not sent any weather packets the latest 1 day(s).
| Time | Temp. | Humidity | Pressure | Rain* | Wind** | Luminosity | Snow |
|---|---|---|---|---|---|---|---|
| 1778038128 | 25.56° C | 89% | 1000 hPa | 0 mm | 3.58 m/s, 180° | 0 W/m² | - |
| 1778038067 | 25.56° C | 89% | 1000 hPa | 0 mm | 3.58 m/s, 213° | 0 W/m² | - |
| 1778038009 | 25.56° C | 89% | 999.9 hPa | 0 mm | 3.13 m/s, 207° | 0 W/m² | - |
| 1778037947 | 25.56° C | 89% | 1000 hPa | 0 mm | 3.13 m/s, 182° | 0 W/m² | - |
| 1778037888 | 25.56° C | 89% | 1000 hPa | 0 mm | 3.58 m/s, 188° | 0 W/m² | - |
| 1778037828 | 25.56° C | 89% | 1000 hPa | 0 mm | 4.02 m/s, 180° | 0 W/m² | - |
| 1778037769 | 25.56° C | 89% | 1000 hPa | 0 mm | 3.58 m/s, 172° | 0 W/m² | - |
| 1778037709 | 25.56° C | 89% | 1000.1 hPa | 0 mm | 3.58 m/s, 172° | 0 W/m² | - |
| 1778037648 | 25.56° C | 89% | 1000 hPa | 0 mm | 3.58 m/s, 172° | 0 W/m² | - |
| 1778037588 | 25.56° C | 89% | 1000.1 hPa | 0 mm | 3.58 m/s, 180° | 0 W/m² | - |
| 1778037527 | 25.56° C | 89% | 1000.1 hPa | 0 mm | 4.02 m/s, 195° | 0 W/m² | - |
| 1778037467 | 25.56° C | 89% | 1000.1 hPa | 0 mm | 4.02 m/s, 190° | 0 W/m² | - |
| 1778037409 | 25.56° C | 89% | 1000.2 hPa | 0 mm | 4.02 m/s, 186° | 0 W/m² | - |
| 1778037347 | 25.56° C | 89% | 1000.1 hPa | 0 mm | 3.13 m/s, 180° | 0 W/m² | - |
| 1778037287 | 25.56° C | 89% | 1000.1 hPa | 0 mm | 2.68 m/s, 188° | 0 W/m² | - |
| 1778037227 | 25.56° C | 89% | 1000.2 hPa | 0 mm | 3.58 m/s, 182° | 0 W/m² | - |
| 1778037168 | 25.56° C | 89% | 1000.1 hPa | 0 mm | 3.13 m/s, 179° | 0 W/m² | - |
| 1778037107 | 25.56° C | 88% | 1000 hPa | 0 mm | 3.13 m/s, 195° | 0 W/m² | - |
| 1778037047 | 25.56° C | 88% | 1000 hPa | 0 mm | 3.13 m/s, 193° | 0 W/m² | - |
| 1778036989 | 25.56° C | 88% | 1000 hPa | 0 mm | 3.13 m/s, 192° | 0 W/m² | - |
| 1778036927 | 25.56° C | 88% | 1000 hPa | 0 mm | 3.13 m/s, 189° | 0 W/m² | - |
| 1778036867 | 25.56° C | 88% | 999.9 hPa | 0 mm | 3.13 m/s, 196° | 0 W/m² | - |
| 1778036809 | 25.56° C | 88% | 1000 hPa | 0 mm | 2.68 m/s, 188° | 0 W/m² | - |
| 1778036747 | 25.56° C | 88% | 999.9 hPa | 0 mm | 3.58 m/s, 197° | 0 W/m² | - |
| 1778036687 | 25.56° C | 88% | 999.9 hPa | 0 mm | 3.58 m/s, 182° | 0 W/m² | - |
* Rain latest hour (hover to see other rain measurements)
** Current wind speed in m/s (hover to see current wind gust speed)